Date String (YYYY-MM-DD hh:mm:ss) UTC,Instrument flags,Ambient pressure (hPa),Sample flow (lpm),Bypass flow (lpm),Sample temperature (°C),Ambient temperature (°C),ASC tube jacket temperature (°C),LED temperature (°C),Box temperature (°C),Sample RH (%),Span deviation,Mass concentration (μg/m³),Mass concentration (μg/m³),Mass concentration (μg/m³)
DateTimeUTC,F1_M11,P_M11,Q1_M11,Q2_M11,T1_M11,T2_M11,T3_M11,T4_M11,T5_M11,U1_M11,ZSPAN_M11,X0_M11,X2_M11,X1_M11
2022-10-13 13:00:00,,0831.0,5.00,0.00,25.4,23.8,00.0,34.3,27.3,15.8,0000.0,0010.69,0005.00,0004.31
2022-10-13 13:01:00,,0831.0,5.00,0.00,25.4,23.8,00.0,34.3,27.3,15.8,0000.0,0011.20,0005.02,0004.31
2022-10-13 13:02:00,,0831.0,5.01,0.00,25.4,23.8,00.0,34.3,27.3,15.8,0000.0,0011.29,0005.03,0004.31
2022-10-13 13:03:00,,0831.1,4.99,0.00,25.4,23.8,00.0,34.3,27.3,15.8,0000.0,0011.27,0005.00,0004.31
2022-10-13 13:04:00,,0831.0,5.01,0.00,25.4,23.7,00.0,34.3,27.3,15.9,0000.0,0011.25,0005.01,0004.31
2022-10-13 13:05:00,,0831.0,5.00,0.00,25.4,23.7,00.0,34.3,27.3,15.9,0000.0,0011.33,0005.00,0004.30
2022-10-13 13:06:00,,0831.1,5.00,0.00,25.4,23.7,00.0,34.3,27.3,15.9,0000.0,0011.45,0005.01,0004.29
2022-10-13 13:07:00,,0831.1,5.00,0.00,25.4,23.7,00.0,34.3,27.2,16.0,0000.0,0011.01,0005.00,0004.30
2022-10-13 13:08:00,,0831.1,5.00,0.00,25.4,23.7,00.0,34.2,27.3,16.0,0000.0,0011.18,0004.98,0004.31
2022-10-13 13:09:00,,0831.1,5.00,0.00,25.4,23.8,00.0,34.2,27.3,16.0,0000.0,0011.59,0004.95,0004.31
2022-10-13 13:10:00,,0831.0,4.98,0.00,25.4,23.8,00.0,34.2,27.3,16.0,0000.0,0012.87,0004.93,0004.29
2022-10-13 13:11:00,,0831.0,5.00,0.00,25.4,23.7,00.0,34.2,27.3,16.0,0000.0,0013.12,0004.95,0004.30
2022-10-13 13:12:00,,0831.0,5.00,0.00,25.4,23.7,00.0,34.2,27.3,16.0,0000.0,0013.14,0004.94,0004.30
2022-10-13 13:13:00,,0831.1,5.01,0.00,25.4,23.7,00.0,34.2,27.3,16.0,0000.0,0013.38,0004.95,0004.30
2022-10-13 13:14:00,,0831.1,4.99,0.00,25.4,23.7,00.0,34.2,27.3,15.9,0000.0,0013.39,0004.95,0004.30
2022-10-13 13:15:00,,0831.2,5.00,0.00,25.3,23.7,00.0,34.2,27.3,15.9,0000.0,0013.22,0004.92,0004.29
2022-10-13 13:16:00,,0831.2,5.01,0.00,25.3,23.7,00.0,34.2,27.3,15.9,0000.0,0013.39,0004.89,0004.28
2022-10-13 13:17:00,,0831.1,5.01,0.00,25.3,23.7,00.0,34.2,27.3,15.9,0000.0,0013.18,0004.83,0004.26
2022-10-13 13:18:00,,0831.1,4.99,0.00,25.3,23.8,00.0,34.2,27.3,16.0,0000.0,0012.66,0004.80,0004.25
2022-10-13 13:19:00,,0831.2,5.00,0.00,25.3,23.8,00.0,34.2,27.3,16.4,0000.0,0012.20,0004.81,0004.23
2022-10-13 13:20:00,,0831.0,5.00,0.00,25.3,23.7,00.0,34.2,27.3,16.4,0000.0,0012.07,0004.85,0004.23
2022-10-13 13:21:00,,0831.1,5.01,0.00,25.3,23.7,00.0,34.2,27.3,16.2,0000.0,0011.67,0004.87,0004.22
2022-10-13 13:22:00,,0831.0,5.00,0.00,25.3,23.7,00.0,34.2,27.3,16.3,0000.0,0011.68,0004.84,0004.22
2022-10-13 13:23:00,,0831.0,5.00,0.00,25.3,23.7,00.0,34.2,27.3,16.4,0000.0,0011.31,0004.82,0004.21
2022-10-13 13:24:00,,0831.0,5.00,0.00,25.3,23.7,00.0,34.2,27.3,16.2,0000.0,0011.60,0004.88,0004.21
2022-10-13 13:25:00,,0831.0,5.00,0.00,25.3,23.8,00.0,34.2,27.3,16.1,0000.0,0012.17,0004.97,0004.23
2022-10-13 13:26:00,,0831.1,5.00,0.00,25.3,23.8,00.0,34.2,27.3,16.0,0000.0,0012.67,0005.01,0004.24
2022-10-13 13:27:00,,0831.1,4.98,0.00,25.3,23.8,00.0,34.2,27.3,16.1,0000.0,0012.30,0005.06,0004.25
2022-10-13 13:28:00,,0831.0,5.01,0.00,25.3,23.8,00.0,34.2,27.3,16.1,0000.0,0012.69,0005.11,0004.26
2022-10-13 13:29:00,,0831.0,5.01,0.00,25.3,23.8,00.0,34.2,27.3,15.9,0000.0,0013.25,0005.16,0004.26
2022-10-13 13:30:00,,0831.0,4.98,0.00,25.3,23.9,00.0,34.2,27.4,16.0,0000.0,0013.43,0005.15,0004.26
2022-10-13 13:31:00,,0831.0,5.00,0.00,25.3,23.9,00.0,34.2,27.4,16.0,0000.0,0013.85,0005.15,0004.27
2022-10-13 13:32:00,,0831.1,5.00,0.00,25.4,23.9,00.0,34.2,27.3,16.0,0000.0,0014.80,0005.12,0004.26
2022-10-13 13:33:00,,0831.2,5.00,0.00,25.4,23.9,00.0,34.2,27.4,16.0,0000.0,0014.38,0005.16,0004.27
2022-10-13 13:34:00,,0831.2,4.99,0.00,25.4,23.9,00.0,34.2,27.3,16.0,0000.0,0014.47,0005.20,0004.27
2022-10-13 13:35:00,,0831.2,4.99,0.00,25.4,23.9,00.0,34.2,27.3,16.1,0000.0,0014.06,0005.16,0004.27
2022-10-13 13:36:00,,0831.2,5.01,0.00,25.4,23.9,00.0,34.2,27.4,16.2,0000.0,0013.62,0005.14,0004.28
2022-10-13 13:37:00,,0831.2,5.00,0.00,25.4,23.9,00.0,34.2,27.4,16.1,0000.0,0013.55,0005.23,0004.29
2022-10-13 13:38:00,,0831.2,4.99,0.00,25.4,23.9,00.0,34.2,27.4,16.0,0000.0,0013.80,0005.27,0004.30
2022-10-13 13:39:00,,0831.2,5.01,0.00,25.4,23.9,00.0,34.2,27.4,16.0,0000.0,0014.02,0005.28,0004.31
2022-10-13 13:40:00,,0831.2,5.01,0.00,25.4,23.9,00.0,34.2,27.4,16.0,0000.0,0013.68,0005.30,0004.33
2022-10-13 13:41:00,,0831.2,4.99,0.00,25.4,23.9,00.0,34.2,27.4,16.0,0000.0,0013.32,0005.36,0004.36
2022-10-13 13:42:00,,0831.2,5.00,0.00,25.4,23.9,00.0,34.2,27.4,16.0,0000.0,0012.58,0005.37,0004.37
2022-10-13 13:43:00,,0831.2,5.01,0.00,25.4,23.9,00.0,34.2,27.4,16.5,0000.0,0010.91,0005.43,0004.39
2022-10-13 13:44:00,,0831.1,5.01,0.00,25.4,24.0,00.0,34.2,27.4,16.6,0000.0,0011.91,0005.49,0004.41
2022-10-13 13:45:00,,0831.2,4.98,0.00,25.4,24.0,00.0,34.2,27.4,16.4,0000.0,0012.27,0005.48,0004.42
2022-10-13 13:46:00,,0831.2,5.01,0.00,25.4,24.0,00.0,34.2,27.4,16.3,0000.0,0011.99,0005.44,0004.42
2022-10-13 13:47:00,,0831.2,5.01,0.00,25.4,24.0,00.0,34.2,27.4,16.2,0000.0,0011.85,0005.38,0004.40
2022-10-13 13:48:00,,0831.2,4.98,0.00,25.4,24.0,00.0,34.2,27.4,16.2,0000.0,0011.55,0005.31,0004.40
2022-10-13 13:49:00,,0831.2,5.01,0.00,25.4,24.0,00.0,34.2,27.4,16.3,0000.0,0011.83,0005.26,0004.41
2022-10-13 13:50:00,,0831.2,5.01,0.00,25.4,24.0,00.0,34.2,27.4,16.4,0000.0,0011.24,0005.20,0004.41
2022-10-13 13:51:00,,0831.2,4.98,0.00,25.5,24.0,00.0,34.2,27.4,16.6,0000.0,0011.09,0005.17,0004.41
2022-10-13 13:52:00,,0831.3,5.01,0.00,25.5,24.0,00.0,34.2,27.4,16.6,0000.0,0012.39,0005.14,0004.41
2022-10-13 13:53:00,,0831.2,5.01,0.00,25.5,24.0,00.0,34.3,27.4,16.7,0000.0,0013.33,0005.16,0004.42
2022-10-13 13:54:00,,0831.2,4.98,0.00,25.5,24.0,00.0,34.3,27.5,16.7,0000.0,0013.43,0005.20,0004.45
2022-10-13 13:55:00,,0831.4,5.01,0.00,25.5,24.0,00.0,34.3,27.5,16.8,0000.0,0012.71,0005.18,0004.45
2022-10-13 13:56:00,,0831.3,5.01,0.00,25.5,24.0,00.0,34.3,27.5,17.0,0000.0,0012.20,0005.21,0004.47
2022-10-13 13:57:00,,0831.4,4.99,0.00,25.5,24.0,00.0,34.3,27.5,17.4,0000.0,0012.36,0005.27,0004.48
2022-10-13 13:58:00,,0831.4,5.01,0.00,25.5,24.1,00.0,34.3,27.5,17.0,0000.0,0012.84,0005.33,0004.51
2022-10-13 13:59:00,,0831.5,5.00,0.00,25.5,24.1,00.0,34.3,27.5,16.7,0000.0,0013.98,0005.41,0004.53
